Location: Pitton
(51.0667°N, 1.7000°W)
Time: 09:36:08
(UTC+00:00)

Cosmos 1455 Rocket - Pass Details

Date: 17 September 2019
Orbit: 605 x 630 km, 82.5° (Epoch: 19 October)

Event Time Altitude Azimuth Distance (km) Brightness Sun altitude
Exits shadow 20:00:37 25° 148° (SSE) 1,257 4.2 -16.5°
Maximum altitude 20:02:42 43° 93° (E) 888 3.4 -16.8°
Drops below altitude 10° 20:06:55 10° 22° (NNE) 2,019 5.7 -17.4°
Sets 20:09:15 0° 16° (NNE) 2,934 6.7 -17.7°
